Stations météo

Publicité
St-Girons, France (7627): Température de l'air & dewpoint: 14.04.2019 22:00:00 - 20.04.2019 22:00:00 (CEST)St-Girons, France (7627): Température de l'air 5cm: 14.04.2019 22:00:00 - 20.04.2019 22:00:00 (CEST)St-Girons, France (7627): Température de l'air -20cm & Température de l'air -100cm: 14.04.2019 22:00:00 - 20.04.2019 22:00:00 (CEST)St-Girons, France (7627): Vitesse du vent & gusts: 14.04.2019 22:00:00 - 20.04.2019 22:00:00 (CEST)St-Girons, France (7627): Direction du vent: 14.04.2019 22:00:00 - 20.04.2019 22:00:00 (CEST)St-Girons, France (7627): reduced air pressure: 14.04.2019 22:00:00 - 20.04.2019 22:00:00 (CEST)St-Girons, France (7627): visibility: 14.04.2019 22:00:00 - 20.04.2019 22:00:00 (CEST)St-Girons, France (7627): Ensoleillement: 14.04.2019 22:00:00 - 20.04.2019 22:00:00 (CEST)St-Girons, France (7627): Quantités de précipitations: 14.04.2019 22:00:00 - 20.04.2019 22:00:00 (CEST)
Date & Time tt [°C] td [°C] tt 5cm [°C] tt -20cm [°C] tt -100cm [°C] ff [km/h] ff [knt] fx [km/h] fx [knt] dd ppp [hPa] vv [km] sd [min] rr [mm]
20.04.2019 22:00:00 14,2 0,1 10,5 13,6 11,5 6 4 26 14 SE 1019,0 20 0 0,0
20.04.2019 21:00:00 15,2 1,7 12,5 13,6 11,5 9 5 28 15 ESE 1018,7 20 0 0,0
20.04.2019 20:00:00 16,2 1,9 13,9 13,5 11,5 15 8 36 19 E 1018,1 20 0 0,0
20.04.2019 19:00:00 17,1 1,1 16,1 13,4 11,5 17 9 45 24 E 1017,9 20 0 0,0
20.04.2019 18:00:00 18,7 0,8 19,6 13,3 11,5 19 11 39 21 ENE 1017,6 20 15 0,0
20.04.2019 17:00:00 19,3 2,2 23,3 13,2 11,5 21 11 41 22 E 1017,9 20 32 0,0
20.04.2019 16:00:00 19,6 3,3 25,0 13,0 11,5 24 13 44 24 E 1018,4 20 47 0,0
20.04.2019 15:00:00 20,5 4,9 30,1 12,9 11,5 16 9 33 18 ENE 1018,7 20 60 0,0
20.04.2019 14:00:00 21,2 5,9 28,6 12,9 11,5 6 3 18 10 NE 1019,1 20 58 0,0
20.04.2019 13:00:00 19,5 8,2 27,8 12,9 11,5 8 5 21 11 N 1020,5 20 56 0,0
20.04.2019 12:00:00 17,5 8,9 25,7 12,9 11,5 8 5 13 7 NW 1021,2 20 55 0,0
20.04.2019 11:00:00 17,0 8,2 18,2 12,9 11,5 3 2 8 4 E 1021,8 20 49 0,0
20.04.2019 10:00:00 13,1 8,6 13,0 13,0 11,4 2 1 7 4 NW 1022,9 20 34 0,0
20.04.2019 09:00:00 10,4 8,3 8,9 13,0 11,4 0 0 3 2 N 1023,6 20 1 0,0
20.04.2019 08:00:00 8,4 7,2 7,8 13,1 11,4 0 0 5 3 N 1023,7 17 0 0,0
20.04.2019 07:00:00 7,5 6,6 5,2 13,2 11,4 0 0 4 2 N 1023,4 19 0 0,0
20.04.2019 06:00:00 6,2 5,5 2,2 13,3 11,4 0 0 3 2 N 1023,7 7 0 0,0
20.04.2019 05:00:00 6,5 5,4 2,2 13,3 11,4 2 1 4 2 SSW 1024,2 3,0 0 0,0
20.04.2019 04:00:00 7,1 5,9 3,0 13,4 11,4 2 1 6 3 SE 1024,1 20 0 0,0
20.04.2019 03:00:00 7,2 5,3 3,4 13,4 11,4 0 0 5 3 N 1024,1 20 0 0,0
20.04.2019 02:00:00 8,6 6,0 4,2 13,4 11,4 3 2 8 4 E 1024,3 20 0 0,0
20.04.2019 01:00:00 9,1 5,8 4,7 13,4 11,4 0 0 3 2 N 1024,7 19 0 0,0
20.04.2019 00:00:00 10,4 5,8 5,8 13,4 11,4 0 0 9 5 N 1024,4 20 0 0,0
19.04.2019 23:00:00 12,0 5,2 7,5 13,4 11,4 4 2 9 5 SE 1023,8 20 0 0,0
19.04.2019 22:00:00 12,8 5,7 8,4 13,3 11,4 4 2 11 6 SSE 1023,2 20 0 0,0
19.04.2019 21:00:00 14,6 4,8 9,6 13,3 11,4 3 2 8 4 SE 1022,3 20 20 0,0
19.04.2019 20:00:00 17,9 3,4 15,8 13,2 11,4 2 1 17 9 N 1021,2 20 21 0,0
19.04.2019 19:00:00 19,1 4,4 20,1 13,1 11,4 8 4 28 15 ENE 1020,5 20 7 0,0
19.04.2019 18:00:00 19,5 4,8 22,0 12,9 11,4 15 8 30 16 E 1020,1 20 14 0,0
19.04.2019 17:00:00 21,2 6,3 28,3 12,8 11,3 14 8 27 15 E 1019,4 20 56 0,0
19.04.2019 16:00:00 22,1 7,1 30,3 12,6 11,3 6 4 23 12 ESE 1019,3 20 53 0,0
19.04.2019 15:00:00 21,7 9,6 29,9 12,6 11,3 9 5 19 10 WNW 1019,2 20 60 0,0
19.04.2019 14:00:00 20,6 8,6 28,4 12,5 11,3 9 5 14 8 NW 1019,5 20 54 0,0
19.04.2019 13:00:00 20,0 9,8 25,7 12,5 11,3 4 2 10 5 NE 1019,8 20 43 0,0
19.04.2019 12:00:00 17,6 10,2 25,2 12,5 11,3 4 2 9 5 NE 1020,1 20 30 0,0
19.04.2019 11:00:00 16,4 11,1 17,6 12,6 11,3 4 2 11 6 E 1020,0 20 30 0,0
19.04.2019 10:00:00 13,9 10,1 12,8 12,6 11,3 3 1 13 7 ESE 1020,2 20 0 0,0
19.04.2019 09:00:00 11,8 9,5 8,7 12,6 11,3 11 6 16 9 SSE 1019,9 20 0 0,0
19.04.2019 08:00:00 8,9 7,7 7,2 12,7 11,3 0 0 7 4 N 1019,8 20 0 0,0
19.04.2019 07:00:00 9,2 7,3 7,2 12,7 11,3 2 1 9 5 SE 1019,3 20 0 0,0
19.04.2019 06:00:00 9,9 8,2 7,6 12,8 11,3 8 4 10 5 SSE 1018,8 20 0 0,0
19.04.2019 05:00:00 9,7 7,6 7,1 12,8 11,3 0 0 10 6 N 1018,3 20 0 0,0
19.04.2019 04:00:00 8,8 7,4 6,9 12,8 11,3 5 3 8 4 S 1018,2 20 0 0,0
19.04.2019 03:00:00 9,3 7,2 7,2 12,8 11,3 0 0 7 4 N 1017,5 20 0 -
19.04.2019 02:00:00 9,5 7,1 7,8 12,8 11,2 4 2 6 4 W 1016,5 20 0 0,0
19.04.2019 01:00:00 10,7 7,9 8,9 12,8 11,3 5 3 11 6 SE 1015,7 20 0 0,0
19.04.2019 00:00:00 12,4 5,5 8,8 12,8 11,2 6 4 16 8 SSE 1015,7 20 0 0,0
18.04.2019 23:00:00 12,5 6,3 9,1 12,8 11,2 6 4 12 6 SSE 1015,6 20 0 0,0
18.04.2019 22:00:00 12,6 7,1 9,2 12,7 11,2 2 1 9 5 SSE 1015,4 20 0 0,0
18.04.2019 21:00:00 13,8 6,9 11,0 12,7 11,2 4 2 9 5 SE 1015,0 20 0 0,0
18.04.2019 20:00:00 15,1 7,1 12,9 12,7 11,2 2 1 16 9 ESE 1014,6 20 0 0,0
18.04.2019 19:00:00 16,9 8,6 17,7 12,6 11,2 6 3 13 7 E 1013,8 20 25 0,0
18.04.2019 18:00:00 18,2 9,0 23,7 12,6 11,2 7 4 18 10 NE 1013,6 20 27 0,0
18.04.2019 17:00:00 17,7 9,1 23,8 12,5 11,2 11 6 18 10 E 1013,7 20 3 0,0
18.04.2019 16:00:00 17,2 9,9 18,6 12,5 11,2 10 5 20 11 E 1014,6 20 0 0,0
18.04.2019 15:00:00 16,7 9,9 16,7 12,5 11,2 3 1 10 5 ESE 1015,1 20 0 0,0
18.04.2019 14:00:00 16,8 9,7 17,8 12,4 11,2 5 3 8 5 S 1015,1 20 0 0,0
18.04.2019 13:00:00 17,1 10,0 20,6 12,4 11,2 3 1 8 4 ESE 1014,7 20 0 0,0
18.04.2019 12:00:00 15,2 8,9 17,3 12,4 11,1 3 2 11 6 SSE 1014,9 20 0 0,0
18.04.2019 11:00:00 13,8 9,0 16,0 12,5 11,2 8 4 - - SE 1014,1 20 0 0,2
18.04.2019 10:00:00 13,2 9,3 13,9 12,5 11,2 4 2 10 5 SE 1013,9 20 30 0,0
18.04.2019 09:00:00 11,6 9,5 9,3 12,6 11,2 3 1 6 3 SE 1014,0 20 23 0,0
18.04.2019 08:00:00 10,2 8,0 8,9 12,6 11,2 4 2 18 10 SW 1014,0 20 0 0,0
18.04.2019 07:00:00 10,7 8,3 9,1 12,6 11,1 10 5 19 10 SE 1012,9 20 0 0,0
18.04.2019 06:00:00 10,3 8,4 8,5 12,6 11,1 9 5 16 8 SSE 1013,1 20 0 0,0
18.04.2019 05:00:00 10,3 8,4 8,5 12,7 11,1 6 4 11 6 S 1013,5 20 0 0,0
18.04.2019 04:00:00 11,0 8,6 9,2 12,7 11,1 4 2 16 8 SSE 1013,5 20 0 0,0
18.04.2019 03:00:00 11,3 8,7 10,0 12,7 11,1 9 5 18 10 SE 1013,3 20 0 0,0
18.04.2019 02:00:00 11,5 8,9 10,1 12,7 11,1 9 5 26 14 ESE 1013,4 20 0 0,0
18.04.2019 01:00:00 11,7 9,1 10,4 12,7 11,1 13 7 27 15 E 1013,4 20 0 0,0
18.04.2019 00:00:00 11,9 9,1 10,6 12,7 11,1 13 7 24 13 ESE 1013,4 20 0 0,0
17.04.2019 23:00:00 12,1 9,3 10,6 12,6 11,1 13 7 26 14 ESE 1013,5 20 0 0,0
17.04.2019 22:00:00 12,9 9,5 11,1 12,6 11,1 10 6 26 14 E 1013,3 20 0 0,0
17.04.2019 21:00:00 14,0 9,6 11,6 12,5 11,1 8 4 19 10 E 1012,8 20 0 0,0
17.04.2019 20:00:00 15,9 10,0 14,8 12,4 11,1 11 6 24 13 E 1012,0 20 0 0,0
17.04.2019 19:00:00 17,8 10,9 19,3 12,3 11,1 8 4 21 12 ENE 1011,4 20 19 0,0
17.04.2019 18:00:00 19,4 10,7 24,8 12,2 11,1 10 6 19 11 E 1011,2 20 35 0,0
17.04.2019 17:00:00 19,6 10,0 24,4 12,1 11,1 7 4 18 10 E 1011,4 20 28 0,0
17.04.2019 16:00:00 18,7 9,7 26,0 12,0 11,1 9 5 23 12 E 1012,0 20 31 0,0
17.04.2019 15:00:00 18,0 9,6 21,8 11,9 11,0 11 6 22 12 E 1012,7 20 14 0,0
17.04.2019 14:00:00 17,6 9,5 21,8 11,8 11,1 10 5 24 13 E 1013,0 20 10 0,0
17.04.2019 13:00:00 18,5 9,0 26,9 11,8 11,0 9 5 20 11 ESE 1012,9 20 60 0,0
17.04.2019 12:00:00 17,0 9,4 24,4 11,8 11,0 8 4 19 10 ESE 1013,8 20 60 0,0
17.04.2019 11:00:00 14,9 8,4 19,4 11,9 11,0 7 4 20 11 ESE 1014,6 20 60 0,0
17.04.2019 10:00:00 12,1 7,2 11,8 11,9 11,0 10 5 23 12 E 1014,7 20 60 0,0
17.04.2019 09:00:00 10,1 6,1 7,0 12,0 11,0 10 5 22 12 E 1014,9 20 51 0,0
17.04.2019 08:00:00 7,8 5,3 6,3 12,1 11,0 14 7 31 17 ESE 1015,6 20 0 0,0
17.04.2019 07:00:00 7,9 4,8 3,5 12,1 11,0 12 7 29 16 ESE 1015,4 20 0 0,0
17.04.2019 06:00:00 7,6 4,9 5,0 12,2 11,0 3 1 25 14 W 1016,0 20 0 0,0
17.04.2019 05:00:00 8,6 5,7 6,8 12,2 11,1 11 6 32 18 ESE 1015,9 20 0 0,0
17.04.2019 04:00:00 8,4 5,9 6,6 12,2 11,0 15 8 31 17 ESE 1017,1 20 0 0,2
17.04.2019 03:00:00 8,4 6,0 6,3 12,3 11,0 11 6 21 11 ESE 1018,1 20 0 0,0
17.04.2019 02:00:00 8,7 6,8 6,6 12,3 11,0 13 7 21 12 SE 1018,6 20 0 0,0
17.04.2019 01:00:00 8,4 6,7 6,5 12,3 11,0 9 5 16 9 SE 1019,4 20 0 0,0
17.04.2019 00:00:00 8,8 6,9 6,1 12,3 11,0 10 6 15 8 SSE 1019,8 20 0 0,0
16.04.2019 23:00:00 10,1 7,0 5,7 12,2 11,0 8 5 11 6 S 1019,6 20 0 0,0
16.04.2019 22:00:00 10,6 7,1 6,1 12,2 11,0 3 2 9 5 SSW 1019,3 20 0 0,0
16.04.2019 21:00:00 12,9 7,3 9,0 12,1 11,0 2 1 15 8 SSE 1018,7 20 0 0,0
16.04.2019 20:00:00 14,5 8,0 14,1 12,0 11,0 9 5 17 9 E 1018,6 20 0 0,0
16.04.2019 19:00:00 15,2 7,5 16,3 12,0 11,0 9 5 19 10 E 1018,5 20 0 0,0
16.04.2019 18:00:00 15,6 7,6 18,9 11,8 11,0 6 3 15 8 ENE 1018,6 20 19 0,0
16.04.2019 17:00:00 16,5 7,2 21,5 11,8 11,0 5 3 16 8 NW 1018,6 20 31 0,0
16.04.2019 16:00:00 15,9 7,4 19,4 11,7 11,0 3 2 10 5 WNW 1019,1 20 10 0,0
16.04.2019 15:00:00 14,5 7,8 18,2 11,7 11,0 5 3 14 7 NNW 1019,9 20 1 0,0
16.04.2019 14:00:00 13,6 8,4 17,5 11,7 11,0 9 5 16 9 NW 1020,6 20 0 0,0
16.04.2019 13:00:00 13,1 8,6 14,1 11,6 11,0 7 4 16 9 NW 1020,8 20 12 0,0
16.04.2019 12:00:00 11,7 8,5 12,3 11,7 11,0 8 5 21 12 WNW 1021,4 20 12 0,0
16.04.2019 11:00:00 10,3 8,7 11,1 11,7 11,0 15 8 30 16 WNW 1021,8 16 3 0,0
16.04.2019 10:00:00 10,2 9,0 9,8 11,7 11,0 9 5 22 12 WNW 1021,1 8 0 0,0
16.04.2019 09:00:00 9,6 8,5 9,2 11,7 11,0 7 4 13 7 WNW 1021,1 17 0 0,6
16.04.2019 08:00:00 9,2 8,3 8,4 11,7 10,9 3 1 6 4 NW 1020,4 12 0 0,2
16.04.2019 07:00:00 9,0 8,1 8,4 11,8 11,0 0 0 4 2 N 1019,4 20 0 0,0
16.04.2019 06:00:00 9,3 8,2 8,5 11,8 11,0 0 0 9 5 N 1018,9 20 0 0,0
16.04.2019 05:00:00 9,5 7,8 8,5 11,8 10,9 0 0 11 6 N 1018,6 20 0 0,2
16.04.2019 04:00:00 10,1 7,2 8,8 11,8 11,0 5 3 22 12 W 1018,5 20 0 0,2
16.04.2019 03:00:00 10,2 7,3 8,8 11,8 11,0 4 2 24 13 NW 1018,5 20 0 1,4
16.04.2019 02:00:00 10,3 7,9 9,2 11,8 10,9 19 10 43 23 W 1018,6 8 0 3,0
16.04.2019 01:00:00 11,7 9,9 11,0 11,8 10,9 19 10 35 19 WNW 1017,5 9 0 1,7
16.04.2019 00:00:00 12,3 10,9 11,6 11,8 11,0 7 4 36 19 WNW 1016,6 8 0 4,6
15.04.2019 23:00:00 13,7 9,7 11,1 11,7 10,9 20 11 50 27 WNW 1015,6 20 0 0,0
15.04.2019 22:00:00 12,3 6,3 10,6 11,6 10,9 9 5 53 29 NNW 1014,8 20 0 0,0
15.04.2019 21:00:00 13,3 5,0 11,3 11,6 10,9 6 3 16 9 E 1010,8 20 0 0,0
15.04.2019 20:00:00 15,0 5,5 14,1 11,5 11,0 10 5 22 12 E 1009,6 20 28 0,0
15.04.2019 19:00:00 16,9 6,1 17,6 11,4 11,0 10 5 22 12 ENE 1009,0 20 3 0,0
15.04.2019 18:00:00 18,2 6,7 21,6 11,3 10,9 13 7 22 12 E 1008,6 20 18 0,0
15.04.2019 17:00:00 19,5 8,2 23,2 11,1 10,9 9 5 19 11 E 1008,6 20 8 0,0
15.04.2019 16:00:00 19,6 7,7 23,8 11,0 10,9 10 5 24 13 ESE 1009,0 20 26 0,0
15.04.2019 15:00:00 19,6 9,5 23,0 11,0 11,0 7 4 16 9 ENE 1009,6 20 1 0,0
15.04.2019 14:00:00 19,2 9,1 24,2 10,9 10,9 10 6 22 12 E 1010,1 20 26 0,0
15.04.2019 13:00:00 19,4 9,6 24,9 10,8 10,9 9 5 21 11 E 1010,6 20 29 0,0
15.04.2019 12:00:00 17,5 8,9 23,9 10,9 10,9 8 4 19 10 E 1012,0 20 35 0,0
15.04.2019 11:00:00 16,4 9,6 17,7 10,9 10,9 8 4 18 10 ESE 1012,7 20 57 0,0
15.04.2019 10:00:00 13,2 7,0 12,7 11,0 10,9 11 6 24 13 ESE 1014,0 20 60 0,0
15.04.2019 09:00:00 11,2 6,7 7,5 11,0 11,0 12 6 28 15 SE 1014,7 20 60 0,0
15.04.2019 08:00:00 7,9 5,0 5,3 11,1 10,9 10 5 26 14 ESE 1015,8 20 25 0,0
15.04.2019 07:00:00 6,4 4,2 4,2 11,1 10,9 12 6 22 12 ESE 1016,5 20 0 0,0
15.04.2019 06:00:00 6,0 4,3 1,3 11,2 10,9 9 5 16 9 SE 1017,1 20 0 0,0
15.04.2019 05:00:00 5,0 2,5 2,1 11,2 10,9 4 2 14 7 SE 1018,2 20 0 0,0
15.04.2019 04:00:00 6,7 3,7 5,1 11,3 10,9 11 6 29 15 SSE 1018,2 20 0 0,0
15.04.2019 03:00:00 6,6 4,4 2,7 11,3 10,9 11 6 21 11 SSE 1018,3 20 0 0,0
15.04.2019 02:00:00 6,9 3,5 1,7 11,4 10,9 12 6 19 11 SSE 1018,8 20 0 0,0
15.04.2019 01:00:00 5,7 3,2 1,7 11,4 10,9 3 2 10 6 E 1019,8 20 0 0,0
15.04.2019 00:00:00 6,9 4,0 1,7 11,4 10,9 9 5 13 7 SSE 1020,1 20 0 0,0
14.04.2019 23:00:00 6,0 3,0 1,9 11,4 10,9 3 1 4 2 WNW 1020,0 20 0 0,0
14.04.2019 22:00:00 7,7 3,5 3,1 11,3 10,9 3 2 7 4 S 1019,2 20 0 0,0

tt = Température de l'air
td = dewpoint
tt 5cm = Température de l'air 5cm
tt -20cm = Température de l'air -20cm
tt -100cm = Température de l'air -100cm
ff = Vitesse du vent
fx = gusts
dd = Direction du vent
ppp = reduced air pressure
vv = visibility
sd = Ensoleillement
rr = Quantités de précipitations

stations d'obs. à proximité